DA3MD WMBT-VTSP

Flight info

Callsign DA3MD
Flight time 1h 21m
Altitude 40000
Route PADLI B469 VPK G582 OGANA Y501 VIH R325 RINBA Y502 DUBAX R325 URGAD URGAD1C
Aircraft CL60/M-SBDE1E2E3FGHIJ1J4J5J7M3RWXYZ/LB1V1D1

Departure

Time 2026-05-08 09:33
Airport Tioman Airport (WMBT)

Arrival

Time 2026-05-08 10:54
Airport Phuket International Airport (VTSP)
Time Latitude Longitude Altitude Speed Heading
2026-05-08 09:08 2.81807 104.15897 27 ft 0 kts 63°
2026-05-08 09:09 2.81820 104.15917 28 ft 0 kts
2026-05-08 09:11 2.81807 104.15897 27 ft 0 kts 63°
2026-05-08 09:29 2.81815 104.15916 28 ft 4 kts 73°
2026-05-08 09:30 2.81812 104.15952 29 ft 3 kts 112°
2026-05-08 09:30 2.81793 104.15977 29 ft 5 kts 159°
2026-05-08 09:30 2.81741 104.15963 29 ft 9 kts 205°
2026-05-08 09:30 2.81665 104.15926 30 ft 13 kts 206°
2026-05-08 09:31 2.81592 104.15891 33 ft 13 kts 205°
2026-05-08 09:31 2.81510 104.15851 39 ft 11 kts 207°
2026-05-08 09:31 2.81453 104.15827 44 ft 5 kts 181°
2026-05-08 09:31 2.81433 104.15828 46 ft 0 kts 175°
2026-05-08 09:32 2.81428 104.15828 47 ft 0 kts 172°
2026-05-08 09:32 2.81410 104.15816 50 ft 0 kts 243°
2026-05-08 09:32 2.81424 104.15804 48 ft 0 kts 20°
2026-05-08 09:32 2.81560 104.15871 35 ft 72 kts 25°
2026-05-08 09:33 2.82368 104.16268 119 ft 155 kts 26°
2026-05-08 09:33 2.83444 104.16318 1172 ft 156 kts 346°
2026-05-08 09:33 2.84590 104.15928 1703 ft 189 kts 337°
2026-05-08 09:33 2.85651 104.14996 2691 ft 200 kts 309°
2026-05-08 09:34 2.86468 104.13784 4034 ft 204 kts 298°
2026-05-08 09:34 2.87093 104.12479 5376 ft 205 kts 297°
2026-05-08 09:34 2.87725 104.11137 6489 ft 216 kts 297°
2026-05-08 09:34 2.88463 104.09585 6896 ft 262 kts 297°
2026-05-08 09:35 2.89293 104.07833 7807 ft 281 kts 297°
2026-05-08 09:35 2.90165 104.05992 8786 ft 296 kts 296°
2026-05-08 09:35 2.91106 104.04007 9500 ft 319 kts 296°
2026-05-08 09:35 2.92077 104.01958 10367 ft 332 kts 296°
2026-05-08 09:36 2.93010 103.99989 11267 ft 339 kts 296°
2026-05-08 09:36 2.93998 103.97903 12141 ft 347 kts 296°
2026-05-08 09:36 2.95050 103.95685 13023 ft 355 kts 296°
2026-05-08 09:36 2.96196 103.93269 13942 ft 361 kts 296°
2026-05-08 09:37 2.97290 103.90962 14789 ft 367 kts 297°
2026-05-08 09:37 2.98384 103.88657 15648 ft 374 kts 297°
2026-05-08 09:37 2.99499 103.86304 16588 ft 378 kts 297°
2026-05-08 09:37 3.00565 103.84057 17448 ft 381 kts 297°
2026-05-08 09:38 3.01729 103.81603 18237 ft 388 kts 297°
2026-05-08 09:38 3.02928 103.79078 19027 ft 393 kts 297°
2026-05-08 09:38 3.04115 103.76575 19761 ft 398 kts 296°
2026-05-08 09:38 3.05322 103.74033 20471 ft 403 kts 297°
2026-05-08 09:39 3.06554 103.71435 21126 ft 408 kts 296°
2026-05-08 09:39 3.07812 103.68784 21752 ft 413 kts 296°
2026-05-08 09:39 3.08992 103.66298 22345 ft 417 kts 296°
2026-05-08 09:39 3.10297 103.63548 22994 ft 422 kts 296°
2026-05-08 09:40 3.11603 103.60796 23611 ft 426 kts 296°
2026-05-08 09:40 3.12811 103.58247 24191 ft 429 kts 296°
2026-05-08 09:40 3.14270 103.55363 24799 ft 432 kts 303°
2026-05-08 09:40 3.16228 103.52949 25363 ft 432 kts 319°
2026-05-08 09:41 3.18762 103.51138 25879 ft 431 kts 335°
2026-05-08 09:41 3.21720 103.49761 26362 ft 435 kts 338°
2026-05-08 09:41 3.24436 103.48545 26834 ft 438 kts 338°
2026-05-08 09:41 3.27365 103.47228 27348 ft 440 kts 338°
2026-05-08 09:42 3.30432 103.45847 27830 ft 444 kts 338°
2026-05-08 09:42 3.33228 103.44170 28255 ft 451 kts 324°
2026-05-08 09:42 3.35566 103.41882 28663 ft 458 kts 310°
2026-05-08 09:42 3.37384 103.38871 29116 ft 463 kts 294°
2026-05-08 09:43 3.38312 103.35706 29489 ft 467 kts 279°
2026-05-08 09:43 3.38457 103.32291 29878 ft 470 kts 268°
2026-05-08 09:43 3.38328 103.28721 30289 ft 471 kts 268°
2026-05-08 09:43 3.38205 103.25376 30666 ft 473 kts 268°
2026-05-08 09:44 3.38077 103.21903 31044 ft 474 kts 268°
2026-05-08 09:44 3.37948 103.18373 31403 ft 476 kts 268°
2026-05-08 09:44 3.37833 103.15230 31666 ft 478 kts 268°
2026-05-08 09:44 3.37716 103.12016 31925 ft 480 kts 268°
2026-05-08 09:45 3.37587 103.08471 32224 ft 482 kts 268°
2026-05-08 09:45 3.37460 103.05007 32558 ft 482 kts 268°
2026-05-08 09:45 3.37334 103.01533 32866 ft 483 kts 268°
2026-05-08 09:45 3.37205 102.98010 33151 ft 484 kts 268°
2026-05-08 09:46 3.37080 102.94570 33397 ft 485 kts 268°
2026-05-08 09:46 3.36954 102.91138 33875 ft 482 kts 268°
2026-05-08 09:46 3.36829 102.87697 34383 ft 477 kts 268°
2026-05-08 09:46 3.36704 102.84298 34834 ft 474 kts 268°
2026-05-08 09:47 3.36581 102.80929 35207 ft 473 kts 268°
2026-05-08 09:47 3.36454 102.77437 35576 ft 471 kts 268°
2026-05-08 09:47 3.36328 102.74020 35835 ft 472 kts 268°
2026-05-08 09:47 3.36206 102.70689 36089 ft 472 kts 268°
2026-05-08 09:48 3.36083 102.67341 36325 ft 472 kts 268°
2026-05-08 09:48 3.35961 102.63995 36586 ft 471 kts 268°
2026-05-08 09:48 3.35872 102.60650 36847 ft 470 kts 269°
2026-05-08 09:48 3.35833 102.57503 37084 ft 470 kts 269°
2026-05-08 09:49 3.35793 102.54279 37332 ft 469 kts 269°
2026-05-08 09:49 3.35752 102.50983 37556 ft 468 kts 269°
2026-05-08 09:49 3.35711 102.47763 37777 ft 467 kts 269°
2026-05-08 09:49 3.35671 102.44573 37971 ft 467 kts 269°
2026-05-08 09:50 3.35628 102.41241 38128 ft 468 kts 269°
2026-05-08 09:50 3.35586 102.37955 38330 ft 467 kts 269°
2026-05-08 09:50 3.35543 102.34618 38524 ft 467 kts 269°
2026-05-08 09:50 3.35500 102.31308 38725 ft 466 kts 269°
2026-05-08 09:51 3.35456 102.27943 38895 ft 466 kts 269°
2026-05-08 09:51 3.35412 102.24601 39034 ft 466 kts 269°
2026-05-08 09:51 3.35369 102.21309 39154 ft 467 kts 269°
2026-05-08 09:51 3.35325 102.17945 39294 ft 467 kts 269°
2026-05-08 09:52 3.35280 102.14602 39453 ft 467 kts 269°
2026-05-08 09:52 3.35236 102.11299 39589 ft 467 kts 269°
2026-05-08 09:52 3.35192 102.07961 39743 ft 466 kts 269°
2026-05-08 09:52 3.35119 102.04684 39869 ft 466 kts 268°
2026-05-08 09:53 3.34950 102.01357 39887 ft 467 kts 267°
2026-05-08 09:53 3.34599 101.94712 39890 ft 468 kts 267°
2026-05-08 09:54 3.34247 101.88042 39895 ft 467 kts 267°
2026-05-08 09:54 3.33982 101.81430 39879 ft 466 kts 272°
2026-05-08 09:55 3.34924 101.74887 39874 ft 465 kts 286°
2026-05-08 09:55 3.37397 101.68790 39892 ft 464 kts 300°
2026-05-08 09:56 3.41213 101.63503 39867 ft 462 kts 314°
2026-05-08 09:56 3.46163 101.59290 39868 ft 459 kts 328°
2026-05-08 09:57 3.54917 101.54985 39856 ft 458 kts 338°
2026-05-08 09:57 3.60855 101.52345 39831 ft 458 kts 338°
2026-05-08 09:58 3.66807 101.49699 39815 ft 458 kts 337°
2026-05-08 09:58 3.72763 101.47049 39819 ft 458 kts 337°
2026-05-08 09:59 3.78766 101.44379 39824 ft 458 kts 337°
2026-05-08 09:59 3.84585 101.41788 39829 ft 459 kts 338°
2026-05-08 10:00 3.90551 101.39136 39831 ft 459 kts 338°
2026-05-08 10:00 3.96569 101.36460 39833 ft 459 kts 338°
2026-05-08 10:01 4.02555 101.33798 39832 ft 458 kts 338°
2026-05-08 10:01 4.08475 101.31164 39834 ft 458 kts 338°
2026-05-08 10:02 4.14456 101.28503 39829 ft 458 kts 338°
2026-05-08 10:02 4.20474 101.25824 39818 ft 459 kts 338°
2026-05-08 10:03 4.26490 101.23147 39820 ft 459 kts 338°
2026-05-08 10:03 4.32623 101.20416 39836 ft 459 kts 338°
2026-05-08 10:04 4.38653 101.17731 39843 ft 458 kts 338°
2026-05-08 10:04 4.44715 101.15031 39844 ft 458 kts 338°
2026-05-08 10:05 4.50765 101.12337 39840 ft 458 kts 338°
2026-05-08 10:05 4.56813 101.09643 39839 ft 458 kts 338°
2026-05-08 10:06 4.62786 101.07053 39840 ft 458 kts 338°
2026-05-08 10:06 4.68831 101.04449 39844 ft 457 kts 339°
2026-05-08 10:07 4.74916 101.01825 39843 ft 457 kts 339°
2026-05-08 10:07 4.81044 100.99182 39845 ft 458 kts 338°
2026-05-08 10:08 4.87104 100.96568 39851 ft 458 kts 338°
2026-05-08 10:08 4.92922 100.94057 39857 ft 458 kts 339°
2026-05-08 10:09 4.99017 100.91427 39859 ft 457 kts 338°
2026-05-08 10:09 5.05107 100.88798 39857 ft 457 kts 339°
2026-05-08 10:10 5.11131 100.86197 39854 ft 456 kts 338°
2026-05-08 10:10 5.17211 100.83571 39855 ft 456 kts 338°
2026-05-08 10:11 5.23349 100.80919 39853 ft 456 kts 338°
2026-05-08 10:11 5.29436 100.78288 39838 ft 456 kts 339°
2026-05-08 10:12 5.35516 100.75660 39826 ft 454 kts 338°
2026-05-08 10:12 5.41372 100.72594 39822 ft 455 kts 332°
2026-05-08 10:13 5.47160 100.69312 39817 ft 455 kts 332°
2026-05-08 10:13 5.52902 100.66058 39822 ft 455 kts 332°
2026-05-08 10:14 5.58405 100.62940 39823 ft 455 kts 332°
2026-05-08 10:14 5.64016 100.59763 39824 ft 454 kts 332°
2026-05-08 10:15 5.69791 100.56493 39827 ft 453 kts 332°
2026-05-08 10:15 5.75528 100.53245 39822 ft 453 kts 332°
2026-05-08 10:16 5.81163 100.49983 39822 ft 454 kts 331°
2026-05-08 10:16 5.86710 100.46648 39821 ft 454 kts 331°
2026-05-08 10:17 5.92288 100.43296 39823 ft 453 kts 331°
2026-05-08 10:17 5.97495 100.40166 39820 ft 452 kts 331°
2026-05-08 10:18 6.03024 100.36845 39806 ft 452 kts 331°
2026-05-08 10:18 6.08608 100.33491 39798 ft 451 kts 331°
2026-05-08 10:19 6.14268 100.30090 39798 ft 452 kts 331°
2026-05-08 10:20 6.22648 100.25053 39801 ft 451 kts 331°
2026-05-08 10:20 6.28292 100.21661 39793 ft 451 kts 331°
2026-05-08 10:21 6.33838 100.18327 39796 ft 451 kts 330°
2026-05-08 10:21 6.39366 100.15002 39803 ft 451 kts 331°
2026-05-08 10:22 6.44550 100.11145 39801 ft 455 kts 317°
2026-05-08 10:22 6.49044 100.06265 39796 ft 457 kts 314°
2026-05-08 10:23 6.53448 100.01401 39801 ft 457 kts 314°
2026-05-08 10:23 6.57858 99.96529 39809 ft 457 kts 314°
2026-05-08 10:24 6.62227 99.91702 39818 ft 456 kts 314°
2026-05-08 10:24 6.66566 99.86909 39810 ft 456 kts 314°
2026-05-08 10:25 6.70924 99.82091 39810 ft 456 kts 314°
2026-05-08 10:25 6.73083 99.79707 39411 ft 461 kts 314°
2026-05-08 10:25 6.75326 99.77227 38953 ft 461 kts 314°
2026-05-08 10:25 6.77530 99.74789 38504 ft 459 kts 314°
2026-05-08 10:26 6.79669 99.72424 38078 ft 458 kts 314°
2026-05-08 10:26 6.81850 99.70013 37622 ft 459 kts 314°
2026-05-08 10:26 6.83940 99.67701 37147 ft 459 kts 314°
2026-05-08 10:26 6.85990 99.65434 36696 ft 460 kts 314°
2026-05-08 10:27 6.88161 99.63032 36236 ft 460 kts 314°
2026-05-08 10:27 6.90257 99.60714 35806 ft 461 kts 314°
2026-05-08 10:27 6.92346 99.58401 35391 ft 462 kts 314°
2026-05-08 10:27 6.94520 99.55996 34973 ft 464 kts 313°
2026-05-08 10:28 6.96763 99.53514 34556 ft 465 kts 313°
2026-05-08 10:28 6.98991 99.51047 34156 ft 466 kts 313°
2026-05-08 10:28 7.01237 99.48589 33766 ft 467 kts 314°
2026-05-08 10:28 7.03546 99.46130 33385 ft 468 kts 314°
2026-05-08 10:29 7.05820 99.43709 33024 ft 470 kts 314°
2026-05-08 10:29 7.08117 99.41262 32672 ft 469 kts 314°
2026-05-08 10:29 7.10402 99.38828 32333 ft 467 kts 314°
2026-05-08 10:29 7.12692 99.36388 32018 ft 464 kts 314°
2026-05-08 10:30 7.14938 99.33993 31708 ft 461 kts 314°
2026-05-08 10:30 7.17193 99.31589 31392 ft 459 kts 314°
2026-05-08 10:30 7.19447 99.29186 31082 ft 458 kts 314°
2026-05-08 10:30 7.21713 99.26769 30777 ft 456 kts 314°
2026-05-08 10:31 7.23919 99.24416 30485 ft 455 kts 314°
2026-05-08 10:31 7.26182 99.22002 30185 ft 454 kts 314°
2026-05-08 10:31 7.28472 99.19558 29885 ft 452 kts 314°
2026-05-08 10:31 7.30679 99.17203 29595 ft 451 kts 314°
2026-05-08 10:32 7.32928 99.14801 29299 ft 449 kts 314°
2026-05-08 10:32 7.35167 99.12412 29003 ft 447 kts 314°
2026-05-08 10:32 7.37358 99.10072 28714 ft 446 kts 314°
2026-05-08 10:32 7.39574 99.07705 28420 ft 444 kts 314°
2026-05-08 10:33 7.41756 99.05373 28140 ft 442 kts 314°
2026-05-08 10:33 7.43767 99.03225 27882 ft 441 kts 314°
2026-05-08 10:33 7.45936 99.00906 27604 ft 439 kts 314°
2026-05-08 10:33 7.48067 98.98629 27329 ft 438 kts 314°
2026-05-08 10:34 7.50204 98.96345 27051 ft 436 kts 314°
2026-05-08 10:34 7.52340 98.94061 26772 ft 435 kts 314°
2026-05-08 10:34 7.54413 98.91845 26503 ft 434 kts 314°
2026-05-08 10:34 7.56441 98.89677 26240 ft 433 kts 314°
2026-05-08 10:35 7.58530 98.87442 25968 ft 431 kts 314°
2026-05-08 10:35 7.60473 98.85364 25715 ft 429 kts 314°
2026-05-08 10:35 7.62480 98.83216 25452 ft 428 kts 314°
2026-05-08 10:35 7.64461 98.81097 25192 ft 427 kts 314°
2026-05-08 10:36 7.66466 98.78951 24929 ft 425 kts 314°
2026-05-08 10:36 7.68370 98.76913 24648 ft 424 kts 314°
2026-05-08 10:36 7.70245 98.74905 24034 ft 419 kts 314°
2026-05-08 10:36 7.72202 98.72805 23291 ft 412 kts 314°
2026-05-08 10:37 7.74097 98.70760 22539 ft 405 kts 314°
2026-05-08 10:37 7.75804 98.68749 21821 ft 400 kts 305°
2026-05-08 10:37 7.77009 98.66493 21107 ft 395 kts 291°
2026-05-08 10:37 7.77708 98.63820 20324 ft 389 kts 279°
2026-05-08 10:38 7.78123 98.61301 19588 ft 385 kts 279°
2026-05-08 10:38 7.78524 98.58867 18872 ft 380 kts 279°
2026-05-08 10:38 7.78920 98.56465 18162 ft 376 kts 279°
2026-05-08 10:38 7.79340 98.53927 17398 ft 372 kts 279°
2026-05-08 10:39 7.79763 98.51361 16620 ft 368 kts 280°
2026-05-08 10:39 7.80151 98.49034 15906 ft 364 kts 281°
2026-05-08 10:39 7.80811 98.46842 15202 ft 359 kts 295°
2026-05-08 10:39 7.81896 98.44657 14436 ft 355 kts 299°
2026-05-08 10:40 7.83019 98.42506 13672 ft 352 kts 299°
2026-05-08 10:40 7.84077 98.40480 12942 ft 348 kts 299°
2026-05-08 10:40 7.85107 98.38506 12202 ft 346 kts 299°
2026-05-08 10:40 7.86163 98.36481 11373 ft 345 kts 299°
2026-05-08 10:41 7.87317 98.34264 10451 ft 343 kts 298°
2026-05-08 10:41 7.88349 98.32285 9635 ft 341 kts 298°
2026-05-08 10:41 7.89369 98.30325 8820 ft 338 kts 298°
2026-05-08 10:41 7.90396 98.28352 7987 ft 335 kts 298°
2026-05-08 10:42 7.91502 98.26225 7135 ft 329 kts 298°
2026-05-08 10:42 7.92500 98.24307 6617 ft 315 kts 298°
2026-05-08 10:42 7.93431 98.22515 6375 ft 295 kts 298°
2026-05-08 10:42 7.94324 98.20795 6218 ft 274 kts 298°
2026-05-08 10:43 7.95220 98.19070 6097 ft 262 kts 298°
2026-05-08 10:43 7.96039 98.17495 5924 ft 267 kts 298°
2026-05-08 10:43 7.96864 98.15908 5784 ft 265 kts 298°
2026-05-08 10:43 7.97695 98.14309 5641 ft 261 kts 298°
2026-05-08 10:44 7.98546 98.12669 5511 ft 249 kts 298°
2026-05-08 10:44 7.99142 98.11096 5379 ft 241 kts 279°
2026-05-08 10:44 7.99161 98.09477 5255 ft 238 kts 265°
2026-05-08 10:44 7.99019 98.07901 5128 ft 239 kts 264°
2026-05-08 10:45 7.98875 98.06198 4998 ft 237 kts 270°
2026-05-08 10:45 7.99198 98.04602 4854 ft 231 kts 295°
2026-05-08 10:45 8.00048 98.03430 4721 ft 211 kts 319°
2026-05-08 10:45 8.01246 98.02715 4574 ft 201 kts 342°
2026-05-08 10:46 8.02625 98.02441 4430 ft 188 kts 356°
2026-05-08 10:46 8.03877 98.02325 4361 ft 177 kts 356°
2026-05-08 10:46 8.05072 98.02212 4251 ft 176 kts 356°
2026-05-08 10:46 8.06247 98.02100 4162 ft 174 kts 356°
2026-05-08 10:47 8.07442 98.02175 4049 ft 171 kts 21°
2026-05-08 10:47 8.08374 98.02889 3918 ft 167 kts 56°
2026-05-08 10:47 8.08744 98.03992 3754 ft 168 kts 82°
2026-05-08 10:47 8.08866 98.05145 3579 ft 166 kts 84°
2026-05-08 10:48 8.08976 98.06320 3450 ft 167 kts 84°
2026-05-08 10:48 8.09083 98.07452 3305 ft 166 kts 84°
2026-05-08 10:48 8.09184 98.08518 3181 ft 166 kts 84°
2026-05-08 10:48 8.09289 98.09623 3055 ft 166 kts 84°
2026-05-08 10:49 8.09396 98.10771 3023 ft 159 kts 84°
2026-05-08 10:49 8.09491 98.11904 3230 ft 166 kts 85°
2026-05-08 10:49 8.09588 98.13012 3251 ft 168 kts 85°
2026-05-08 10:49 8.09690 98.14130 3108 ft 168 kts 85°
2026-05-08 10:50 8.09795 98.15261 2908 ft 166 kts 85°
2026-05-08 10:50 8.09905 98.16445 2693 ft 166 kts 84°
2026-05-08 10:50 8.10008 98.17552 2482 ft 165 kts 84°
2026-05-08 10:50 8.10114 98.18690 2279 ft 165 kts 84°
2026-05-08 10:51 8.10220 98.19840 2062 ft 160 kts 84°
2026-05-08 10:51 8.10319 98.20917 1862 ft 139 kts 83°
2026-05-08 10:51 8.10405 98.21839 1671 ft 134 kts 83°
2026-05-08 10:51 8.10491 98.22754 1489 ft 132 kts 83°
2026-05-08 10:52 8.10579 98.23686 1316 ft 131 kts 83°
2026-05-08 10:52 8.10667 98.24610 1140 ft 131 kts 83°
2026-05-08 10:52 8.10748 98.25462 982 ft 130 kts 83°
2026-05-08 10:52 8.10829 98.26327 828 ft 130 kts 83°
2026-05-08 10:53 8.10917 98.27235 663 ft 130 kts 84°
2026-05-08 10:53 8.10996 98.28144 448 ft 130 kts 84°
2026-05-08 10:53 8.11069 98.28996 290 ft 129 kts 84°
2026-05-08 10:53 8.11165 98.29855 182 ft 130 kts 84°
2026-05-08 10:54 8.11233 98.30789 48 ft 123 kts 83°
2026-05-08 10:54 8.11306 98.31480 51 ft 63 kts 85°
2026-05-08 10:54 8.11342 98.31862 73 ft 52 kts 83°
2026-05-08 10:54 8.11371 98.32169 81 ft 32 kts 86°
2026-05-08 10:55 8.11361 98.32320 81 ft 23 kts 106°
2026-05-08 10:55 8.11328 98.32410 80 ft 9 kts 117°
2026-05-08 10:55 8.11278 98.32433 80 ft 10 kts 206°
2026-05-08 10:55 8.11251 98.32354 81 ft 14 kts 263°
2026-05-08 10:56 8.11240 98.32250 81 ft 16 kts 263°
2026-05-08 10:56 8.11226 98.32119 79 ft 21 kts 264°
2026-05-08 10:56 8.11213 98.31974 75 ft 22 kts 265°
2026-05-08 10:56 8.11199 98.31832 68 ft 21 kts 264°
2026-05-08 10:57 8.11186 98.31687 60 ft 22 kts 265°
2026-05-08 10:57 8.11171 98.31527 51 ft 19 kts 265°
2026-05-08 10:57 8.11150 98.31302 42 ft 19 kts 264°
2026-05-08 10:58 8.11138 98.31165 39 ft 17 kts 265°
2026-05-08 10:58 8.11128 98.31056 38 ft 4 kts 265°
2026-05-08 10:58 8.11125 98.31023 38 ft 7 kts 265°
2026-05-08 10:58 8.11154 98.30963 37 ft 5 kts 309°
2026-05-08 10:59 8.11192 98.30934 38 ft 9 kts 345°
2026-05-08 10:59 8.11272 98.30924 38 ft 12 kts 354°
2026-05-08 10:59 8.11367 98.30913 40 ft 15 kts 352°
2026-05-08 10:59 8.11448 98.30906 41 ft 10 kts 14°
2026-05-08 11:00 8.11507 98.30935 41 ft 5 kts 36°
2026-05-08 11:00 8.11520 98.30960 40 ft 3 kts 117°
2026-05-08 11:00 8.11509 98.30964 39 ft 2 kts 180°
2026-05-08 11:00 8.11495 98.30968 39 ft 2 kts 164°
2026-05-08 11:01 8.11486 98.30970 39 ft 0 kts 166°